This is the latest recevied weather packets stored in our database for station/object N5ZKK. If no packets are shown the sender has not sent any weather packets the latest 1 day(s).
| Time | Temp. | Humidity | Pressure | Rain* | Wind** | Luminosity | Snow |
|---|---|---|---|---|---|---|---|
| 1836274837 | 21.67° C | 78% | 1017.4 hPa | 0 mm | 0 m/s | - | - |
| 1778073913 | 21.67° C | 99% | 1010 hPa | 0 mm | 0 m/s | - | - |
| 1778072113 | 21.67° C | 99% | 1009.8 hPa | 0 mm | 0.45 m/s, 141° | - | - |
| 1778070313 | 21.67° C | 99% | 1009.5 hPa | 0 mm | 0.89 m/s, 143° | - | - |
| 1778068513 | 22.22° C | 99% | 1009.4 hPa | 0 mm | 0.89 m/s, 166° | - | - |
| 1778066713 | 22.22° C | 99% | 1009.8 hPa | 0 mm | 0.89 m/s, 157° | - | - |
| 1778064913 | 22.22° C | 99% | 1009.7 hPa | 0 mm | 0.45 m/s, 179° | - | - |
| 1778063113 | 22.22° C | 99% | 1009.6 hPa | 0 mm | 1.34 m/s, 217° | - | - |
| 1778061313 | 22.22° C | 99% | 1009.4 hPa | 0 mm | 1.34 m/s, 181° | - | - |
| 1778059513 | 22.22° C | 99% | 1009.4 hPa | 0 mm | 0.89 m/s, 183° | - | - |
| 1778057713 | 22.22° C | 99% | 1008.9 hPa | 0 mm | 1.34 m/s, 140° | - | - |
| 1778055913 | 22.78° C | 97% | 1008.7 hPa | 0 mm | 1.79 m/s, 146° | - | - |
| 1778054113 | 22.78° C | 95% | 1008.8 hPa | 0 mm | 2.24 m/s, 180° | - | - |
| 1778052313 | 23.33° C | 95% | 1009 hPa | 0 mm | 2.24 m/s, 189° | - | - |
| 1778050513 | 23.33° C | 95% | 1009.1 hPa | 0 mm | 0.89 m/s, 157° | - | - |
| 1778048713 | 23.33° C | 95% | 1009.3 hPa | 0 mm | 0.89 m/s, 144° | - | - |
| 1778046913 | 22.78° C | 95% | 1009.2 hPa | 0 mm | 1.79 m/s, 151° | - | - |
| 1778045113 | 22.22° C | 96% | 1009.6 hPa | 0 mm | 1.34 m/s, 148° | - | - |
| 1778043313 | 21.11° C | 97% | 1009.6 hPa | 0 mm | 0 m/s | - | - |
| 1778041513 | 21.67° C | 95% | 1009.5 hPa | 0 mm | 0 m/s | - | - |
| 1778039713 | 22.22° C | 94% | 1009.2 hPa | 0 mm | 0 m/s | - | - |
| 1778037913 | 22.22° C | 91% | 1008.6 hPa | 0 mm | 0 m/s | - | - |
| 1778036113 | 23.33° C | 89% | 1008.3 hPa | 0 mm | 0 m/s | - | - |
| 1778034313 | 24.44° C | 85% | 1007.3 hPa | 0 mm | 0 m/s | - | - |
| 1778033113 | 25° C | 82% | 1006.9 hPa | 0 mm | 0 m/s | - | - |
* Rain latest hour (hover to see other rain measurements)
** Current wind speed in m/s (hover to see current wind gust speed)